{"data":{"norad_id":54012,"intl_designator":"2022-125BA","name":"STARLINK-5126","alt_names":[],"object_type":"PAYLOAD","status":"ACTIVE","operator":null,"country":"US","launch_date":"2022-10-05","launch_site_code":"AFWTR","launch_vehicle":null,"mission":null,"orbit_class":"UNKNOWN","rcs_meters":null,"size_class":null,"mass_kg":null,"dimensions":null,"purposes":["comms"],"wikipedia_slug":null,"has_3d_model":false,"image_url":null,"decayed_at":null,"tle_current":{"epoch":"2026-09-20T13:50:21.414336Z","epoch_age_seconds":79911,"freshness":"FRESH","line1":"1 54012U 22125BA  26263.57663674 -.00002802  00000+0 -78617-4 0  9993","line2":"2 54012  53.1610  34.6110 0001217 101.8409 258.2729 15.31677791219227","mean_motion":15.31677791,"eccentricity":0.0001217,"inclination_deg":53.161,"raan_deg":34.611,"arg_perigee_deg":101.8409,"mean_anomaly_deg":258.2729,"bstar":-7.8617e-5,"rev_number":21922,"period_min":94.014551132184,"perigee_km":469.97268351151,"apogee_km":471.63971628636,"semimajor_km":6848.9431998989,"source":"CELESTRAK","updated_at":"2026-09-21T09:00:33.074845Z"}}}